Location: Bottens
(46.6171°N, 6.6605°E)
Time: 18:34:24
(UTC+00:00)

ADEOS II - Pass Details

Date: 20 June 2021
Orbit: 799 x 800 km, 98.6° (Epoch: 30 July)

Event Time Altitude Azimuth Distance (km) Brightness Sun altitude
Rises 01:25:07 0° 18° (NNE) 3,321 7.1 -15.6°
Reaches altitude 10° 01:27:32 10° 23° (NNE) 2,386 5.9 -15.5°
Maximum altitude 01:32:41 52° 100° (E) 989 2.7 -15.1°
Enters shadow 01:36:49 16° 173° (S) 2,004 3.7 -14.7°
